Red Bluff, CA

2:24 AM PST on December 16, 2019 (GMT -0800)
Red Bluff Municipal

Weather History for KRBL - October, 2019

Change the Weather History Date:

Tuesday, October 29, 2019

  Actual Average Record
Temperature  
Mean Temperature 53 °F -  
Max Temperature 66 °F 69 °F 89 °F (1939)
Min Temperature 42 °F 47 °F 30 °F (1946)
Degree Days  
Heating Degree Days 12    
Growing Degree Days 3 (Base 50)    
Moisture  
Dew Point 8 °F    
Average Humidity 18    
Maximum Humidity 37    
Minimum Humidity 4    
Precipitation  
Precipitation 0.00 in - - ()
Sea Level Pressure  
Sea Level Pressure 30.04 in    
Wind  
Wind Speed 12 mph (NNW)    
Max Wind Speed 29 mph    
Max Gust Speed 38 mph    
Visibility 10 miles    
Events Rain    
Averages and records for this station are not official NWS values.
T = Trace of Precipitation, MM = Missing Value Source: NWS Daily Summary

Daily Weather History Graph

Daily Weather History Graph

Search for Another Location

Airport or City:

Astronomy

Oct. 29, 2019 Rise Set
Actual Time 7:34 AM PDT 6:10 PM PDT
Civil Twilight 7:06 AM PDT 6:38 PM PDT
Nautical Twilight 6:34 AM PDT 7:09 PM PDT
Astronomical Twilight 6:03 AM PDT 7:41 PM PDT
Moon 9:14 AM PDT (10/29) 7:38 PM PDT (10/29)
Length of Visible Light 11h 31m
Length of Day
10h 35m
Waxing Crescent, 4% of the Moon is Illuminated
Oct 29
Waxing Crescent
Nov 4
First Quarter
Nov 12
Full
Nov 19
Last Quarter
Nov 26
New

Hourly Weather History & Observations

Time (PDT) Temp. Windchill Dew Point Humidity Pressure Visibility Wind Dir Wind Speed Gust Speed Precip Events Conditions
12:54 AM 44.1 °F 41.5 °F 16.0 °F 32% 30.00 in 10.0 mi WNW 4.6 mph - N/A   Clear
1:54 AM 42.1 °F 38.4 °F 16.0 °F 35% 29.99 in 10.0 mi WNW 5.8 mph - N/A   Clear
2:54 AM 41.0 °F 37.1 °F 15.1 °F 35% 29.99 in 10.0 mi NW 5.8 mph - N/A   Clear
3:54 AM 41.0 °F 35.8 °F 14.0 °F 33% 29.99 in 10.0 mi NW 8.1 mph - N/A   Clear
4:54 AM 42.1 °F 37.1 °F 16.0 °F 35% 29.99 in 10.0 mi NW 8.1 mph - N/A   Clear
5:54 AM 44.1 °F 38.6 °F 17.1 °F 34% 30.00 in 10.0 mi NW 10.4 mph - N/A   Clear
6:54 AM 46.0 °F 39.9 °F 21.0 °F 37% 30.01 in 10.0 mi NW 13.8 mph - N/A   Clear
7:54 AM 50.0 °F - 17.1 °F 27% 30.02 in 10.0 mi North 16.1 mph - N/A   Clear
8:54 AM 55.9 °F - 16.0 °F 21% 30.06 in 10.0 mi North 23.0 mph 32.2 mph N/A   Clear
9:54 AM 57.0 °F - 15.1 °F 19% 30.08 in 10.0 mi NNW 26.5 mph 35.7 mph N/A   Clear
10:54 AM 59.0 °F - 14.0 °F 17% 30.08 in 10.0 mi North 25.3 mph 38.0 mph N/A   Clear
11:54 AM 61.0 °F - 12.0 °F 15% 30.07 in 10.0 mi NNW 28.8 mph 38.0 mph N/A   Clear
12:54 PM 63.0 °F - 8.1 °F 11% 30.06 in 10.0 mi NNW 24.2 mph 34.5 mph 0.00 in Rain Light Rain
1:54 PM 64.0 °F - 3.0 °F 9% 30.04 in 10.0 mi North 25.3 mph 33.4 mph 0.00 in   Clear
2:54 PM 64.9 °F - -0.0 °F 7% 30.03 in 10.0 mi NNW 19.6 mph 31.1 mph N/A   Clear
3:54 PM 64.9 °F - -0.9 °F 7% 30.04 in 10.0 mi NNW 16.1 mph 26.5 mph N/A   Clear
4:54 PM 64.9 °F - -0.9 °F 7% 30.02 in 10.0 mi North 19.6 mph 25.3 mph N/A   Clear
5:54 PM 62.1 °F - -0.0 °F 8% 30.03 in 10.0 mi North 12.7 mph - N/A   Clear
6:54 PM 57.9 °F - -0.0 °F 10% 30.04 in 10.0 mi NW 6.9 mph - N/A   Clear
7:54 PM 55.0 °F - 1.0 °F 11% 30.06 in 10.0 mi NNW 5.8 mph - N/A   Clear
8:54 PM 53.1 °F - -0.0 °F 11% 30.08 in 10.0 mi NNW 6.9 mph - N/A   Clear
9:54 PM 51.1 °F - -2.0 °F 11% 30.10 in 10.0 mi NNW 6.9 mph - N/A   Clear
10:54 PM 51.1 °F - -2.9 °F 11% 30.12 in 10.0 mi NNW 9.2 mph - N/A   Clear
11:54 PM 50.0 °F - -2.0 °F 12% 30.12 in 10.0 mi NNW 10.4 mph - N/A   Clear